DW1779 Weather Reports


time (UTC)temp
C
wind
direction
speed
KPH
gust
KPH
rain 1hr
cm
rain 24hr
cm
rain mn
cm
humidity
%
barometer
mb
20260503184543 21 150 14.5 29.0 0.00 0.00 0.00 41 1015.3
20260503184041 22 227 11.3 27.4 0.00 0.00 0.00 41 1015.4
20260503183539 22 178 12.9 25.7 0.00 0.00 0.00 42 1015.5
20260503183042 22 281 6.4 24.1 0.00 0.00 0.00 43 1015.7
20260503182537 22 265 8.0 24.1 0.00 0.00 0.00 41 1015.7
20260503182036 21 208 8.0 20.9 0.00 0.00 0.00 42 1015.8
20260503181554 22 215 4.8 24.1 0.00 0.00 0.00 45 1016.1
20260503181038 21 135 4.8 30.6 0.00 0.00 0.00 48 1016.1
20260503180505 21 233 9.7 30.6 0.00 0.00 0.00 44 1016.1
20260503180013 21 142 4.8 29.0 0.00 0.00 0.00 47 1016.2
20260503175504 21 172 8.0 22.5 0.00 0.00 0.00 46 1016.5
20260503175002 21 229 1.6 22.5 0.00 0.00 0.00 51 1016.6
20260503174618 21 177 4.8 19.3 0.00 0.00 0.00 42 1016.8
20260503174102 20 171 9.7 19.3 0.00 0.00 0.00 44 1017.1
20260503173558 20 190 8.0 30.6 0.00 0.00 0.00 46 1017.2
20260503173110 20 212 11.3 30.6 0.00 0.00 0.00 44 1017.4
20260503172557 20 329 6.4 24.1 0.00 0.00 0.00 44 1017.5
20260503172054 20 222 8.0 24.1 0.00 0.00 0.00 46 1017.6
20260503171552 20 180 4.8 16.1 0.00 0.00 0.00 46 1017.9
20260503171052 20 177 6.4 20.9 0.00 0.00 0.00 45 1017.9
20260503170502 19 308 6.4 30.6 0.00 0.00 0.00 46 1018.0
20260503150645 15 293 11.3 22.5 0.00 0.00 0.00 56 1019.7
20260503131054 9 139 9.7 22.5 0.00 0.00 0.00 74 1020.0
20260503130531 9 190 4.8 14.5 0.00 0.00 0.00 76 1020.0
20260503010636 9 300 0.0 0.0 0.00 0.00 0.00 72 1019.7
20260503010103 10 300 0.0 0.0 0.00 0.00 0.00 70 1019.7
20260503005600 10 300 0.0 0.0 0.00 0.00 0.00 66 1019.7
20260503005058 11 300 0.0 0.0 0.00 0.00 0.00 66 1019.7
20260503004602 11 300 0.0 0.0 0.00 0.00 0.00 63 1019.6
20260503004057 11 300 0.0 3.2 0.00 0.00 0.00 61 1019.7
20260503003557 12 300 0.0 3.2 0.00 0.00 0.00 56 1019.7
20260503003101 12 300 0.0 4.8 0.00 0.00 0.00 53 1019.7
20260503002553 13 309 1.6 4.8 0.00 0.00 0.00 52 1019.7
20260503002057 13 314 0.0 4.8 0.00 0.00 0.00 52 1019.6
20260503001601 13 5 0.0 6.4 0.00 0.00 0.00 50 1019.5
20260503001053 13 338 1.6 8.0 0.00 0.00 0.00 49 1019.6
20260503000653 13 11 1.6 8.0 0.00 0.00 0.00 47 1019.5
20260503000053 14 355 3.2 8.0 0.00 0.00 0.00 49 1019.5
20260502235553 14 307 1.6 12.9 0.00 0.00 0.00 49 1019.4
20260502235053 14 347 3.2 12.9 0.00 0.00 0.00 48 1019.5
20260502234555 14 298 3.2 12.9 0.00 0.00 0.00 45 1019.4
20260502234053 14 14 3.2 14.5 0.00 0.00 0.00 47 1019.3
20260502233552 14 313 3.2 14.5 0.00 0.00 0.00 45 1019.4
20260502233050 15 321 4.8 14.5 0.00 0.00 0.00 45 1019.4
20260502232548 15 319 3.2 14.5 0.00 0.00 0.00 46 1019.5
20260502232048 15 280 4.8 16.1 0.00 0.00 0.00 45 1019.5
20260502231551 15 291 6.4 16.1 0.00 0.00 0.00 47 1019.5
20260502231052 15 286 6.4 19.3 0.00 0.00 0.00 45 1019.6
20260502230650 15 294 6.4 19.3 0.00 0.00 0.00 45 1019.5
20260502230048 15 323 6.4 19.3 0.00 0.00 0.00 46 1019.5
20260502225547 15 304 4.8 17.7 0.00 0.00 0.00 47 1019.5
20260502225048 15 314 6.4 19.3 0.00 0.00 0.00 44 1019.5
20260502224547 15 355 8.0 19.3 0.00 0.00 0.00 43 1019.5
20260502224047 15 79 8.0 19.3 0.00 0.00 0.00 43 1019.5
20260502223547 15 28 6.4 19.3 0.00 0.00 0.00 45 1019.5
20260502223043 15 271 11.3 19.3 0.00 0.00 0.00 43 1019.5
20260502222543 15 324 4.8 12.9 0.00 0.00 0.00 44 1019.5
20260502222045 15 338 4.8 12.9 0.00 0.00 0.00 47 1019.5
20260502221544 15 281 6.4 16.1 0.00 0.00 0.00 43 1019.5
20260502221043 15 296 8.0 19.3 0.00 0.00 0.00 48 1019.5
20260502220644 15 360 8.0 19.3 0.00 0.00 0.00 47 1019.5
20260502220057 15 296 4.8 16.1 0.00 0.00 0.00 45 1019.6
20260502215541 15 321 6.4 12.9 0.00 0.00 0.00 45 1019.5
20260502215042 15 11 4.8 19.3 0.00 0.00 0.00 46 1019.5
20260502214542 14 306 3.2 19.3 0.00 0.00 0.00 48 1019.5
20260502214041 15 5 4.8 19.3 0.00 0.00 0.00 45 1019.6
20260502213541 15 338 4.8 19.3 0.00 0.00 0.00 44 1019.5
20260502213041 15 292 3.2 19.3 0.00 0.00 0.00 44 1019.5
20260502212538 15 300 6.4 19.3 0.00 0.00 0.00 46 1019.6
20260502212037 15 290 8.0 14.5 0.00 0.00 0.00 47 1019.5
20260502211541 14 315 4.8 17.7 0.00 0.00 0.00 45 1019.4
20260502211040 13 279 3.2 17.7 0.00 0.00 0.00 50 1019.5
20260502210501 14 333 4.8 24.1 0.00 0.00 0.00 49 1019.5
20260502210001 15 288 8.0 19.3 0.00 0.00 0.00 43 1019.4
20260502205501 15 311 4.8 20.9 0.00 0.00 0.00 46 1019.6
20260502205101 15 316 8.0 20.9 0.00 0.00 0.00 46 1019.5
20260502204610 15 327 6.4 19.3 0.00 0.00 0.00 44 1019.4
20260502204101 15 330 8.0 19.3 0.00 0.00 0.00 42 1019.5
20260502203559 15 281 4.8 17.7 0.00 0.00 0.00 50 1019.5
20260502203112 15 281 8.0 17.7 0.00 0.00 0.00 47 1019.6
20260502202557 15 309 6.4 16.1 0.00 0.00 0.00 45 1019.7
20260502202101 15 338 3.2 19.3 0.00 0.00 0.00 48 1019.8
20260502201545 15 310 6.4 19.3 0.00 0.00 0.00 44 1020.1
20260502201042 15 326 4.8 14.5 0.00 0.00 0.00 51 1020.1
20260502200642 14 321 3.2 16.1 0.00 0.00 0.00 48 1020.2
20260502200040 14 332 4.8 19.3 0.00 0.00 0.00 45 1020.3
20260502195539 14 355 6.4 22.5 0.00 0.00 0.00 47 1020.3
20260502195039 15 342 4.8 22.5 0.00 0.00 0.00 47 1020.3
20260502194544 15 345 8.0 20.9 0.00 0.00 0.00 44 1020.3
20260502194039 15 289 8.0 20.9 0.00 0.00 0.00 46 1020.3
20260502193539 16 298 9.7 20.9 0.00 0.00 0.00 47 1020.1
20260502193039 16 321 8.0 22.5 0.00 0.00 0.00 47 1020.3
20260502192538 16 317 12.9 22.5 0.00 0.00 0.00 42 1020.3
20260502192037 16 348 8.0 22.5 0.00 0.00 0.00 45 1020.3
20260502191542 15 330 1.6 16.1 0.00 0.00 0.00 49 1020.3
20260502191040 15 328 4.8 20.9 0.00 0.00 0.00 44 1020.3
20260502190637 15 333 4.8 20.9 0.00 0.00 0.00 42 1020.3
20260502190107 15 43 6.4 24.1 0.00 0.00 0.00 50 1020.4
20260502185557 15 273 9.7 24.1 0.00 0.00 0.00 45 1020.4
20260502185056 15 348 8.0 20.9 0.00 0.00 0.00 43 1020.4